Hourly Weather Barsh

Today, 18 April, Sunday

Time Temperature Precipitation Wind Pressure Humidity
00:00 +7°C° 0 mm 4 mps 745 mmHg 60%
01:00 +6°C° 0 mm 4 mps 745 mmHg 61%
02:00 +6°C° 0 mm 4 mps 745 mmHg 62%
03:00 +5°C° 0 mm 3 mps 745 mmHg 63%
04:00 +5°C° 0 mm 3 mps 745 mmHg 65%
05:00 +5°C° 0 mm 3 mps 745 mmHg 64%
06:00 +5°C° 0 mm 3 mps 745 mmHg 63%
07:00 +5°C° 0 mm 4 mps 745 mmHg 62%
08:00 +7°C° 0 mm 4 mps 745 mmHg 56%
09:00 +8°C° 0 mm 5 mps 745 mmHg 50%
10:00 +9°C° 0 mm 6 mps 745 mmHg 44%
11:00 +10°C° 0 mm 5 mps 745 mmHg 42%
12:00 +12°C° 0 mm 5 mps 745 mmHg 39%
13:00 +13°C° 0 mm 5 mps 745 mmHg 37%
14:00 +13°C° 0 mm 5 mps 745 mmHg 37%
15:00 +13°C° 0 mm 6 mps 745 mmHg 37%
16:00 +13°C° 0 mm 6 mps 745 mmHg 37%
17:00 +11°C° 0 mm 6 mps 745 mmHg 42%
18:00 +10°C° 0 mm 6 mps 745 mmHg 47%
19:00 +9°C° 0 mm 6 mps 745 mmHg 52%
20:00 +8°C° 0 mm 6 mps 745 mmHg 58%
21:00 +7°C° 0 mm 6 mps 746 mmHg 65%
22:00 +4°C° 0 mm 7 mps 746 mmHg 71%
23:00 +4°C° 0 mm 6 mps 746 mmHg 74%

Tomorrow, 19 April, Monday

Time Temperature Precipitation Wind Pressure Humidity
00:00 +3°C° 0 mm 6 mps 747 mmHg 77%
01:00 +2°C° 0 mm 6 mps 747 mmHg 81%
02:00 +2°C° 0 mm 6 mps 747 mmHg 77%
03:00 +2°C° 0 mm 6 mps 747 mmHg 74%
04:00 +2°C° 0 mm 6 mps 748 mmHg 71%
05:00 +1°C° 0 mm 6 mps 748 mmHg 68%
06:00 0°C° 0 mm 7 mps 748 mmHg 65%
07:00 0°C° 0 mm 7 mps 748 mmHg 62%
08:00 0°C° 0 mm 7 mps 749 mmHg 64%
09:00 0°C° 0 mm 7 mps 750 mmHg 66%
10:00 -1°C° 0 mm 7 mps 750 mmHg 67%
11:00 +2°C° 0 mm 7 mps 750 mmHg 61%
12:00 +3°C° 0 mm 7 mps 750 mmHg 55%
13:00 +4°C° 0 mm 6 mps 750 mmHg 49%
14:00 +5°C° 0 mm 6 mps 750 mmHg 46%
15:00 +5°C° 0 mm 6 mps 750 mmHg 42%
16:00 +7°C° 0 mm 6 mps 750 mmHg 38%
17:00 +5°C° 0 mm 6 mps 750 mmHg 39%
18:00 +6°C° 0 mm 5 mps 750 mmHg 40%
19:00 +5°C° 0 mm 5 mps 751 mmHg 41%
20:00 +3°C° 0 mm 5 mps 751 mmHg 41%
21:00 +2°C° 0 mm 6 mps 752 mmHg 42%
22:00 +1°C° 0 mm 6 mps 752 mmHg 42%
23:00 -1°C° 0 mm 6 mps 753 mmHg 43%

Day after tomorrow, 20 April, Tuesday

Time Temperature Precipitation Wind Pressure Humidity
00:00 -1°C° 0 mm 5 mps 753 mmHg 44%
01:00 -2°C° 0 mm 5 mps 753 mmHg 45%
02:00 -2°C° 0 mm 5 mps 754 mmHg 46%
03:00 -2°C° 0 mm 5 mps 754 mmHg 47%
04:00 -4°C° 0 mm 5 mps 755 mmHg 48%
05:00 -4°C° 0 mm 5 mps 755 mmHg 45%
06:00 -3°C° 0 mm 6 mps 755 mmHg 43%
07:00 -3°C° 0 mm 6 mps 755 mmHg 41%
08:00 -2°C° 0 mm 6 mps 755 mmHg 37%
09:00 -1°C° 0 mm 6 mps 755 mmHg 34%
10:00 +2°C° 0 mm 6 mps 756 mmHg 30%
11:00 +3°C° 0 mm 6 mps 755 mmHg 29%
12:00 +5°C° 0 mm 5 mps 755 mmHg 28%
13:00 +6°C° 0 mm 5 mps 755 mmHg 27%
14:00 +6°C° 0 mm 5 mps 755 mmHg 27%
15:00 +7°C° 0 mm 5 mps 755 mmHg 26%
16:00 +7°C° 0 mm 5 mps 754 mmHg 26%
17:00 +7°C° 0 mm 4 mps 754 mmHg 30%
18:00 +7°C° 0 mm 3 mps 754 mmHg 33%
19:00 +6°C° 0 mm 2 mps 754 mmHg 37%
20:00 +5°C° 0 mm 2 mps 754 mmHg 39%
21:00 +4°C° 0 mm 2 mps 755 mmHg 42%
22:00 +3°C° 0 mm 2 mps 755 mmHg 44%
23:00 +3°C° 0 mm 2 mps 755 mmHg 46%

21 April, Wednesday

Time Temperature Precipitation Wind Pressure Humidity
00:00 +2°C° 0 mm 2 mps 755 mmHg 48%
01:00 +2°C° 0 mm 2 mps 755 mmHg 50%
02:00 +1°C° 0 mm 2 mps 755 mmHg 51%
03:00 +1°C° 0 mm 2 mps 755 mmHg 52%
04:00 -1°C° 0 mm 2 mps 755 mmHg 53%
05:00 0°C° 0 mm 3 mps 755 mmHg 50%
06:00 0°C° 0 mm 3 mps 756 mmHg 47%
07:00 0°C° 0 mm 4 mps 756 mmHg 44%
08:00 +3°C° 0 mm 4 mps 755 mmHg 39%
09:00 +3°C° 0 mm 5 mps 755 mmHg 35%
10:00 +4°C° 0 mm 6 mps 755 mmHg 30%
11:00 +7°C° 0 mm 6 mps 755 mmHg 29%
12:00 +8°C° 0 mm 6 mps 755 mmHg 27%
13:00 +9°C° 0 mm 6 mps 754 mmHg 26%
14:00 +9°C° 0 mm 6 mps 754 mmHg 26%
15:00 +10°C° 0 mm 6 mps 754 mmHg 26%
16:00 +10°C° 0 mm 6 mps 754 mmHg 26%
17:00 +9°C° 0 mm 6 mps 754 mmHg 29%
18:00 +9°C° 0 mm 5 mps 754 mmHg 33%
19:00 +8°C° 0 mm 4 mps 754 mmHg 37%
20:00 +7°C° 0 mm 4 mps 754 mmHg 40%
21:00 +6°C° 0 mm 4 mps 754 mmHg 44%
22:00 +5°C° 0 mm 3 mps 754 mmHg 47%
23:00 +5°C° 0 mm 3 mps 754 mmHg 48%

22 April, Thursday

Time Temperature Precipitation Wind Pressure Humidity
00:00 +4°C° 0 mm 3 mps 755 mmHg 50%
01:00 +3°C° 0 mm 3 mps 755 mmHg 52%
02:00 +3°C° 0 mm 4 mps 755 mmHg 53%
03:00 +3°C° 0 mm 4 mps 755 mmHg 54%
04:00 +3°C° 0 mm 4 mps 755 mmHg 55%
05:00 +3°C° 0 mm 4 mps 755 mmHg 55%
06:00 +3°C° 0 mm 4 mps 755 mmHg 54%
07:00 +4°C° 0 mm 4 mps 755 mmHg 53%
08:00 +5°C° 0 mm 5 mps 755 mmHg 49%
09:00 +5°C° 0 mm 6 mps 755 mmHg 45%
10:00 +7°C° 0 mm 6 mps 756 mmHg 40%
11:00 +8°C° 0 mm 7 mps 756 mmHg 38%
12:00 +9°C° 0 mm 7 mps 756 mmHg 36%
13:00 +9°C° 0 mm 7 mps 756 mmHg 34%
14:00 +10°C° 0 mm 7 mps 755 mmHg 33%
15:00 +10°C° 0 mm 6 mps 755 mmHg 32%
16:00 +11°C° 0 mm 6 mps 755 mmHg 31%
17:00 +10°C° 0 mm 5 mps 755 mmHg 35%
18:00 +11°C° 0 mm 4 mps 755 mmHg 40%
19:00 +10°C° 0 mm 3 mps 755 mmHg 44%
20:00 +9°C° 0 mm 3 mps 755 mmHg 47%
21:00 +9°C° 0 mm 2 mps 755 mmHg 49%
22:00 +8°C° 0 mm 2 mps 755 mmHg 51%
23:00 +7°C° 0 mm 2 mps 754 mmHg 54%

23 April, Friday

Time Temperature Precipitation Wind Pressure Humidity
00:00 +8°C° 0 mm 1 mps 754 mmHg 57%
01:00 +8°C° 0 mm 1 mps 754 mmHg 60%
02:00 +8°C° 0 mm 1 mps 754 mmHg 62%
03:00 +7°C° 0 mm 1 mps 754 mmHg 64%
04:00 +7°C° 0 mm 1 mps 754 mmHg 66%
05:00 +8°C° 0 mm 1 mps 754 mmHg 66%
06:00 +8°C° 0 mm 1 mps 754 mmHg 66%
07:00 +8°C° 0 mm 1 mps 754 mmHg 66%
08:00 +8°C° 0 mm 2 mps 754 mmHg 62%
09:00 +9°C° 0 mm 2 mps 754 mmHg 59%
10:00 +10°C° 0 mm 3 mps 754 mmHg 56%
11:00 +11°C° 0 mm 3 mps 754 mmHg 55%
12:00 +11°C° 0 mm 3 mps 754 mmHg 54%
13:00 +11°C° 0 mm 3 mps 754 mmHg 54%
14:00 +11°C° 0 mm 3 mps 754 mmHg 54%
15:00 +11°C° 0 mm 3 mps 754 mmHg 55%
16:00 +11°C° 0 mm 3 mps 754 mmHg 56%
17:00 +12°C° 0 mm 2 mps 753 mmHg 58%
18:00 +12°C° 0 mm 1 mps 753 mmHg 59%
19:00 +12°C° 0 mm 1 mps 753 mmHg 61%
20:00 +11°C° 0 mm 1 mps 753 mmHg 62%
21:00 +11°C° 0 mm 1 mps 753 mmHg 63%
22:00 +9°C° 0 mm 2 mps 752 mmHg 64%
23:00 +9°C° 0.2 mm 2 mps 752 mmHg 70%
Show more